"Time","Value","Approval","myLocation"
"2023-03-30 00:00",19.8926205777958,"Approved","OW416"
"2023-03-30 01:00",19.8946226456982,"Approved","OW416"
"2023-03-30 02:00",19.8976247136005,"Approved","OW416"
"2023-03-30 03:00",19.8956267815028,"Approved","OW416"
"2023-03-30 04:00",19.8956288494051,"Approved","OW416"
"2023-03-30 05:00",19.8916309173075,"Approved","OW416"
"2023-03-30 06:00",19.8896329852098,"Approved","OW416"
"2023-03-30 07:00",19.8876350531121,"Approved","OW416"
"2023-03-30 08:00",19.8856371210144,"Approved","OW416"
"2023-03-30 09:00",19.8826391889168,"Approved","OW416"
"2023-03-30 10:00",19.8816412568191,"Approved","OW416"
"2023-03-30 11:00",19.8806433247214,"Approved","OW416"
"2023-03-30 12:00",19.8796453926238,"Approved","OW416"
"2023-03-30 13:00",19.8766474605261,"Approved","OW416"
"2023-03-30 14:00",19.8796495284284,"Approved","OW416"
"2023-03-30 15:00",19.8776515963307,"Approved","OW416"
"2023-03-30 16:00",19.8816536642331,"Approved","OW416"
"2023-03-30 17:00",19.8796557321354,"Approved","OW416"
"2023-03-30 18:00",19.8856578000377,"Approved","OW416"
"2023-03-30 19:00",19.8806598679401,"Approved","OW416"
"2023-03-30 20:00",19.8886619358424,"Approved","OW416"
"2023-03-30 21:00",19.8836640037447,"Approved","OW416"
"2023-03-30 22:00",19.879666071647,"Approved","OW416"
"2023-03-30 23:00",19.8826681395494,"Approved","OW416"
"2023-03-31 00:00",19.8816702074517,"Approved","OW416"
"2023-03-31 01:00",19.884672275354,"Approved","OW416"
"2023-03-31 02:00",19.8846743432563,"Approved","OW416"
"2023-03-31 03:00",19.8856764111587,"Approved","OW416"
"2023-03-31 04:00",19.884678479061,"Approved","OW416"
"2023-03-31 05:00",19.8846805469633,"Approved","OW416"
"2023-03-31 06:00",19.8806826148657,"Approved","OW416"
"2023-03-31 07:00",19.878684682768,"Approved","OW416"
"2023-03-31 08:00",19.8766867506703,"Approved","OW416"
"2023-03-31 09:00",19.8746888185726,"Approved","OW416"
"2023-03-31 10:00",19.872690886475,"Approved","OW416"
"2023-03-31 11:00",19.8706929543773,"Approved","OW416"
"2023-03-31 12:00",19.8696950222796,"Approved","OW416"
"2023-03-31 13:00",19.8686970901819,"Approved","OW416"
"2023-03-31 14:00",19.8716991580843,"Approved","OW416"
"2023-03-31 15:00",19.8687012259866,"Approved","OW416"
"2023-03-31 16:00",19.8857032938889,"Approved","OW416"
"2023-03-31 17:00",19.8777053617913,"Approved","OW416"
"2023-03-31 18:00",19.8807074296936,"Approved","OW416"
"2023-03-31 19:00",19.8787094975959,"Approved","OW416"
"2023-03-31 20:00",19.8957115654982,"Approved","OW416"
"2023-03-31 21:00",19.8827136334006,"Approved","OW416"
"2023-03-31 22:00",19.8827157013029,"Approved","OW416"
"2023-03-31 23:00",19.8817177692052,"Approved","OW416"
"2023-04-01 00:00",19.8827198371075,"Approved","OW416"
"2023-04-01 01:00",19.8867219050099,"Approved","OW416"
"2023-04-01 02:00",19.8837239729122,"Approved","OW416"
"2023-04-01 03:00",19.8847260408145,"Approved","OW416"
"2023-04-01 04:00",19.8867281087169,"Approved","OW416"
"2023-04-01 05:00",19.8817301766192,"Approved","OW416"
"2023-04-01 06:00",19.8807322445215,"Approved","OW416"
"2023-04-01 07:00",19.8787343124238,"Approved","OW416"
"2023-04-01 08:00",19.8777363803262,"Approved","OW416"
"2023-04-01 09:00",19.8907384482285,"Approved","OW416"
"2023-04-01 10:00",19.8737405161308,"Approved","OW416"
"2023-04-01 11:00",19.8707425840331,"Approved","OW416"
"2023-04-01 12:00",19.8707446519355,"Approved","OW416"
"2023-04-01 13:00",19.8687467198378,"Approved","OW416"
"2023-04-01 14:00",19.8677487877401,"Approved","OW416"
"2023-04-01 15:00",19.8687508556425,"Approved","OW416"
"2023-04-01 16:00",19.8707529235448,"Approved","OW416"
"2023-04-01 17:00",19.8727549914471,"Approved","OW416"
"2023-04-01 18:00",19.8737570593494,"Approved","OW416"
"2023-04-01 19:00",19.8787591272518,"Approved","OW416"
"2023-04-01 20:00",19.8847611951541,"Approved","OW416"
"2023-04-01 21:00",19.8767632630564,"Approved","OW416"
"2023-04-01 22:00",19.8757653309587,"Approved","OW416"
"2023-04-01 23:00",19.8747673988611,"Approved","OW416"
"2023-04-02 00:00",19.8757694667634,"Approved","OW416"
"2023-04-02 01:00",19.8777715346657,"Approved","OW416"
"2023-04-02 02:00",19.8787736025681,"Approved","OW416"
"2023-04-02 03:00",19.8767756704704,"Approved","OW416"
"2023-04-02 04:00",19.8797777383727,"Approved","OW416"
"2023-04-02 05:00",19.877779806275,"Approved","OW416"
"2023-04-02 06:00",19.8777818741774,"Approved","OW416"
"2023-04-02 07:00",19.8767839420797,"Approved","OW416"
"2023-04-02 08:00",19.875786009982,"Approved","OW416"
"2023-04-02 09:00",19.8747880778844,"Approved","OW416"
"2023-04-02 10:00",19.8747901457867,"Approved","OW416"
"2023-04-02 11:00",19.874792213689,"Approved","OW416"
"2023-04-02 12:00",19.8727942815913,"Approved","OW416"
"2023-04-02 13:00",19.8727963494937,"Approved","OW416"
"2023-04-02 14:00",19.874798417396,"Approved","OW416"
"2023-04-02 15:00",19.8758004852983,"Approved","OW416"
"2023-04-02 16:00",19.8818025532006,"Approved","OW416"
"2023-04-02 17:00",19.883804621103,"Approved","OW416"
"2023-04-02 18:00",19.8838066890053,"Approved","OW416"
"2023-04-02 19:00",19.8878087569076,"Approved","OW416"
"2023-04-02 20:00",19.88581082481,"Approved","OW416"
"2023-04-02 21:00",19.8888128927123,"Approved","OW416"
"2023-04-02 22:00",19.8848149606146,"Approved","OW416"
"2023-04-02 23:00",19.8828170285169,"Approved","OW416"
"2023-04-03 00:00",19.8858190964193,"Approved","OW416"
"2023-04-03 01:00",19.8838211643216,"Approved","OW416"
"2023-04-03 02:00",19.8878232322239,"Approved","OW416"
"2023-04-03 03:00",19.8888253001262,"Approved","OW416"
"2023-04-03 04:00",19.8898273680286,"Approved","OW416"
"2023-04-03 05:00",19.8888294359309,"Approved","OW416"
"2023-04-03 06:00",19.8868315038332,"Approved","OW416"
"2023-04-03 07:00",19.8878335717356,"Approved","OW416"
"2023-04-03 08:00",19.8848356396379,"Approved","OW416"
"2023-04-03 09:00",19.8828377075402,"Approved","OW416"
"2023-04-03 10:00",19.8808397754425,"Approved","OW416"
"2023-04-03 11:00",19.8808418433449,"Approved","OW416"
"2023-04-03 12:00",19.8778439112472,"Approved","OW416"
"2023-04-03 13:00",19.8768459791495,"Approved","OW416"
"2023-04-03 14:00",19.8758480470518,"Approved","OW416"
"2023-04-03 15:00",19.8818501149542,"Approved","OW416"
"2023-04-03 16:00",19.8808521828565,"Approved","OW416"
"2023-04-03 17:00",19.8848542507588,"Approved","OW416"
"2023-04-03 18:00",19.8878563186612,"Approved","OW416"
"2023-04-03 19:00",19.8858583865635,"Approved","OW416"
"2023-04-03 20:00",19.8838604544658,"Approved","OW416"
"2023-04-03 21:00",19.8888625223681,"Approved","OW416"
"2023-04-03 22:00",19.8868645902705,"Approved","OW416"
"2023-04-03 23:00",19.8858666581728,"Approved","OW416"
"2023-04-04 00:00",19.8848687260751,"Approved","OW416"
"2023-04-04 01:00",19.8848707939775,"Approved","OW416"
"2023-04-04 02:00",19.8868728618798,"Approved","OW416"
"2023-04-04 03:00",19.8888749297821,"Approved","OW416"
"2023-04-04 04:00",19.8898769976844,"Approved","OW416"
"2023-04-04 05:00",19.8888790655868,"Approved","OW416"
"2023-04-04 06:00",19.8868811334891,"Approved","OW416"
"2023-04-04 07:00",19.8938832013914,"Approved","OW416"
"2023-04-04 08:00",19.8868852692937,"Approved","OW416"
"2023-04-04 09:00",19.8858873371961,"Approved","OW416"
"2023-04-04 10:00",19.8858894050984,"Approved","OW416"
"2023-04-04 11:00",19.8838914730007,"Approved","OW416"
"2023-04-04 12:00",19.8828935409031,"Approved","OW416"
"2023-04-04 13:00",19.8828956088054,"Approved","OW416"
"2023-04-04 14:00",19.8818976767077,"Approved","OW416"
"2023-04-04 15:00",19.88789974461,"Approved","OW416"
"2023-04-04 16:00",19.8879018125124,"Approved","OW416"
"2023-04-04 17:00",19.8909038804147,"Approved","OW416"
"2023-04-04 18:00",19.890905948317,"Approved","OW416"
"2023-04-04 19:00",19.8909080162193,"Approved","OW416"
"2023-04-04 20:00",19.8899100841217,"Approved","OW416"
"2023-04-04 21:00",19.891912152024,"Approved","OW416"
"2023-04-04 22:00",19.8919142199263,"Approved","OW416"
"2023-04-04 23:00",19.8879162878287,"Approved","OW416"
"2023-04-05 00:00",19.890918355731,"Approved","OW416"
"2023-04-05 01:00",19.8879204236333,"Approved","OW416"
"2023-04-05 02:00",19.8889224915356,"Approved","OW416"
"2023-04-05 03:00",19.888924559438,"Approved","OW416"
"2023-04-05 04:00",19.8889266273403,"Approved","OW416"
"2023-04-05 05:00",19.8879286952426,"Approved","OW416"
"2023-04-05 06:00",19.8879307631449,"Approved","OW416"
"2023-04-05 07:00",19.8849328310473,"Approved","OW416"
"2023-04-05 08:00",19.8849348989496,"Approved","OW416"
"2023-04-05 09:00",19.8839369668519,"Approved","OW416"
"2023-04-05 10:00",19.8809390347543,"Approved","OW416"
"2023-04-05 11:00",19.8799411026566,"Approved","OW416"
"2023-04-05 12:00",19.8779431705589,"Approved","OW416"
"2023-04-05 13:00",19.8759452384612,"Approved","OW416"
"2023-04-05 14:00",19.8769473063636,"Approved","OW416"
"2023-04-05 15:00",19.8799493742659,"Approved","OW416"
"2023-04-05 16:00",19.8899514421682,"Approved","OW416"
"2023-04-05 17:00",19.8889535100705,"Approved","OW416"
"2023-04-05 18:00",19.8839555779729,"Approved","OW416"
"2023-04-05 19:00",19.8849576458752,"Approved","OW416"
"2023-04-05 20:00",19.8829597137775,"Approved","OW416"
"2023-04-05 21:00",19.8819617816799,"Approved","OW416"
"2023-04-05 22:00",19.8849638495822,"Approved","OW416"
"2023-04-05 23:00",19.9509659174845,"Approved","OW416"
"2023-04-06 00:00",19.9139679853868,"Approved","OW416"
"2023-04-06 01:00",19.9129700532892,"Approved","OW416"
"2023-04-06 02:00",19.9039721211915,"Approved","OW416"
"2023-04-06 03:00",19.9019741890938,"Approved","OW416"
"2023-04-06 04:00",19.8989762569961,"Approved","OW416"
"2023-04-06 05:00",19.8979783248985,"Approved","OW416"
"2023-04-06 06:00",19.8969803928008,"Approved","OW416"
"2023-04-06 07:00",19.8959824607031,"Approved","OW416"
"2023-04-06 08:00",19.8939845286055,"Approved","OW416"
"2023-04-06 09:00",19.8919865965078,"Approved","OW416"
"2023-04-06 10:00",19.8889886644101,"Approved","OW416"
"2023-04-06 11:00",19.8889907323124,"Approved","OW416"
"2023-04-06 12:00",19.8849928002148,"Approved","OW416"
"2023-04-06 13:00",19.8839948681171,"Approved","OW416"
"2023-04-06 14:00",19.8829969360194,"Approved","OW416"
"2023-04-06 15:00",19.8879990039218,"Approved","OW416"
"2023-04-06 16:00",19.8890010718241,"Approved","OW416"
"2023-04-06 17:00",19.9000031397264,"Approved","OW416"
"2023-04-06 18:00",19.8950052076287,"Approved","OW416"
"2023-04-06 19:00",19.8950072755311,"Approved","OW416"
"2023-04-06 20:00",19.9000093434334,"Approved","OW416"
"2023-04-06 21:00",19.9010114113357,"Approved","OW416"
"2023-04-06 22:00",19.898013479238,"Approved","OW416"
"2023-04-06 23:00",19.8950155471404,"Approved","OW416"
"2023-04-07 00:00",19.8910176150427,"Approved","OW416"
"2023-04-07 01:00",19.893019682945,"Approved","OW416"
"2023-04-07 02:00",19.8920217508474,"Approved","OW416"
"2023-04-07 03:00",19.8900238187497,"Approved","OW416"
"2023-04-07 04:00",19.888025886652,"Approved","OW416"
"2023-04-07 05:00",19.8900279545543,"Approved","OW416"
"2023-04-07 06:00",19.8870300224567,"Approved","OW416"
"2023-04-07 07:00",19.885032090359,"Approved","OW416"
"2023-04-07 08:00",19.8830341582613,"Approved","OW416"
"2023-04-07 09:00",19.8830362261636,"Approved","OW416"
"2023-04-07 10:00",19.882038294066,"Approved","OW416"
"2023-04-07 11:00",19.8810403619683,"Approved","OW416"
"2023-04-07 12:00",19.8790424298706,"Approved","OW416"
"2023-04-07 13:00",19.878044497773,"Approved","OW416"
"2023-04-07 14:00",19.8760465656753,"Approved","OW416"
"2023-04-07 15:00",19.8820486335776,"Approved","OW416"
"2023-04-07 16:00",19.8850507014799,"Approved","OW416"
"2023-04-07 17:00",19.8850527693823,"Approved","OW416"
"2023-04-07 18:00",19.8920548372846,"Approved","OW416"
"2023-04-07 19:00",19.8910569051869,"Approved","OW416"
"2023-04-07 20:00",19.8940589730893,"Approved","OW416"
"2023-04-07 21:00",19.8940610409916,"Approved","OW416"
"2023-04-07 22:00",19.8900631088939,"Approved","OW416"
"2023-04-07 23:00",19.8880651767962,"Approved","OW416"
"2023-04-08 00:00",19.8840672446986,"Approved","OW416"
"2023-04-08 01:00",19.8840693126009,"Approved","OW416"
"2023-04-08 02:00",19.8820713805032,"Approved","OW416"
"2023-04-08 03:00",19.8810734484055,"Approved","OW416"
"2023-04-08 04:00",19.8880755163079,"Approved","OW416"
"2023-04-08 05:00",19.8820775842102,"Approved","OW416"
"2023-04-08 06:00",19.8820796521125,"Approved","OW416"
"2023-04-08 07:00",19.8800817200149,"Approved","OW416"
"2023-04-08 08:00",19.8790837879172,"Approved","OW416"
"2023-04-08 09:00",19.8790858558195,"Approved","OW416"
"2023-04-08 10:00",19.8800879237218,"Approved","OW416"
"2023-04-08 11:00",19.8770899916242,"Approved","OW416"
"2023-04-08 12:00",19.8760920595265,"Approved","OW416"
"2023-04-08 13:00",19.8750941274288,"Approved","OW416"
"2023-04-08 14:00",19.8800961953311,"Approved","OW416"
"2023-04-08 15:00",19.8760982632335,"Approved","OW416"
"2023-04-08 16:00",19.8801003311358,"Approved","OW416"
"2023-04-08 17:00",19.8891023990381,"Approved","OW416"
"2023-04-08 18:00",19.8871044669405,"Approved","OW416"
"2023-04-08 19:00",19.8891065348428,"Approved","OW416"
"2023-04-08 20:00",19.8891086027451,"Approved","OW416"
"2023-04-08 21:00",19.8881106706474,"Approved","OW416"
"2023-04-08 22:00",19.8861127385498,"Approved","OW416"
"2023-04-08 23:00",19.8851148064521,"Approved","OW416"
"2023-04-09 00:00",19.8861168743544,"Approved","OW416"
"2023-04-09 01:00",19.8891189422567,"Approved","OW416"
"2023-04-09 02:00",19.8911210101591,"Approved","OW416"
"2023-04-09 03:00",19.8911230780614,"Approved","OW416"
"2023-04-09 04:00",19.8871251459637,"Approved","OW416"
"2023-04-09 05:00",19.8841272138661,"Approved","OW416"
"2023-04-09 06:00",19.8841292817684,"Approved","OW416"
"2023-04-09 07:00",19.8821313496707,"Approved","OW416"
"2023-04-09 08:00",19.881133417573,"Approved","OW416"
"2023-04-09 09:00",19.8811354854754,"Approved","OW416"
"2023-04-09 10:00",19.8811375533777,"Approved","OW416"
"2023-04-09 11:00",19.89713962128,"Approved","OW416"
"2023-04-09 12:00",19.8791416891823,"Approved","OW416"
"2023-04-09 13:00",19.8771437570847,"Approved","OW416"
"2023-04-09 14:00",19.875145824987,"Approved","OW416"
"2023-04-09 15:00",19.8781478928893,"Approved","OW416"
"2023-04-09 16:00",19.8921499607917,"Approved","OW416"
"2023-04-09 17:00",19.885152028694,"Approved","OW416"
"2023-04-09 18:00",19.8891540965963,"Approved","OW416"
"2023-04-09 19:00",19.8871561644986,"Approved","OW416"
"2023-04-09 20:00",19.890158232401,"Approved","OW416"
"2023-04-09 21:00",19.8941603003033,"Approved","OW416"
"2023-04-09 22:00",19.8941623682056,"Approved","OW416"
"2023-04-09 23:00",19.8951644361079,"Approved","OW416"
"2023-04-10 00:00",19.8861665040103,"Approved","OW416"
"2023-04-10 01:00",19.8831685719126,"Approved","OW416"
"2023-04-10 02:00",19.8821706398149,"Approved","OW416"
"2023-04-10 03:00",19.8831727077173,"Approved","OW416"
"2023-04-10 04:00",19.8821747756196,"Approved","OW416"
"2023-04-10 05:00",19.8831768435219,"Approved","OW416"
"2023-04-10 06:00",19.8821789114242,"Approved","OW416"
"2023-04-10 07:00",19.8831809793266,"Approved","OW416"
"2023-04-10 08:00",19.8821830472289,"Approved","OW416"
"2023-04-10 09:00",19.8831851151312,"Approved","OW416"
"2023-04-10 10:00",19.8811871830335,"Approved","OW416"
"2023-04-10 11:00",19.8821892509359,"Approved","OW416"
"2023-04-10 12:00",19.8801913188382,"Approved","OW416"
"2023-04-10 13:00",19.8801933867405,"Approved","OW416"
"2023-04-10 14:00",19.8821954546429,"Approved","OW416"
"2023-04-10 15:00",19.8811975225452,"Approved","OW416"
"2023-04-10 16:00",19.8881995904475,"Approved","OW416"
"2023-04-10 17:00",19.8852016583498,"Approved","OW416"
"2023-04-10 18:00",19.8942037262522,"Approved","OW416"
"2023-04-10 19:00",19.8942057941545,"Approved","OW416"
"2023-04-10 20:00",19.8972078620568,"Approved","OW416"
"2023-04-10 21:00",19.8962099299592,"Approved","OW416"
"2023-04-10 22:00",19.8972119978615,"Approved","OW416"
"2023-04-10 23:00",19.8952140657638,"Approved","OW416"
"2023-04-11 00:00",19.8952161336661,"Approved","OW416"
"2023-04-11 01:00",19.8952182015685,"Approved","OW416"
"2023-04-11 02:00",19.8952202694708,"Approved","OW416"
"2023-04-11 03:00",19.8932223373731,"Approved","OW416"
"2023-04-11 04:00",19.8912244052754,"Approved","OW416"
"2023-04-11 05:00",19.8882264731778,"Approved","OW416"
"2023-04-11 06:00",19.8862285410801,"Approved","OW416"
"2023-04-11 07:00",19.8832306089824,"Approved","OW416"
"2023-04-11 08:00",19.8832326768848,"Approved","OW416"
"2023-04-11 09:00",19.8822347447871,"Approved","OW416"
"2023-04-11 10:00",19.8812368126894,"Approved","OW416"
"2023-04-11 11:00",19.8792388805917,"Approved","OW416"
"2023-04-11 12:00",19.8812409484941,"Approved","OW416"
"2023-04-11 13:00",19.8782430163964,"Approved","OW416"
"2023-04-11 14:00",19.8792450842987,"Approved","OW416"
"2023-04-11 15:00",19.882247152201,"Approved","OW416"
"2023-04-11 16:00",19.8932492201034,"Approved","OW416"
"2023-04-11 17:00",19.8902512880057,"Approved","OW416"
"2023-04-11 18:00",19.891253355908,"Approved","OW416"
"2023-04-11 19:00",19.8942554238104,"Approved","OW416"
"2023-04-11 20:00",19.8952574917127,"Approved","OW416"
"2023-04-11 21:00",19.897259559615,"Approved","OW416"
"2023-04-11 22:00",19.8952616275173,"Approved","OW416"
"2023-04-11 23:00",19.8972636954197,"Approved","OW416"
"2023-04-12 00:00",19.894265763322,"Approved","OW416"
"2023-04-12 01:00",19.8962678312243,"Approved","OW416"
"2023-04-12 02:00",19.9372698991267,"Approved","OW416"
"2023-04-12 03:00",19.910271967029,"Approved","OW416"
"2023-04-12 04:00",19.9042740349313,"Approved","OW416"
"2023-04-12 05:00",19.9012761028336,"Approved","OW416"
"2023-04-12 06:00",19.901278170736,"Approved","OW416"
"2023-04-12 07:00",19.8942802386383,"Approved","OW416"
"2023-04-12 08:00",19.8922823065406,"Approved","OW416"
"2023-04-12 09:00",19.8902843744429,"Approved","OW416"
"2023-04-12 10:00",19.8892864423453,"Approved","OW416"
"2023-04-12 11:00",19.8872885102476,"Approved","OW416"
"2023-04-12 12:00",19.8872905781499,"Approved","OW416"
"2023-04-12 13:00",19.9022926460523,"Approved","OW416"
"2023-04-12 14:00",19.8872947139546,"Approved","OW416"
"2023-04-12 15:00",19.8912967818569,"Approved","OW416"
"2023-04-12 16:00",19.8922988497592,"Approved","OW416"
"2023-04-12 17:00",19.8943009176616,"Approved","OW416"
"2023-04-12 18:00",19.8953029855639,"Approved","OW416"
"2023-04-12 19:00",19.8963050534662,"Approved","OW416"
"2023-04-12 20:00",19.8973071213685,"Approved","OW416"
"2023-04-12 21:00",19.8983091892709,"Approved","OW416"
"2023-04-12 22:00",19.8973112571732,"Approved","OW416"
"2023-04-12 23:00",19.8993133250755,"Approved","OW416"
"2023-04-13 00:00",19.8953153929779,"Approved","OW416"
"2023-04-13 01:00",19.8963174608802,"Approved","OW416"
"2023-04-13 02:00",19.8963195287825,"Approved","OW416"
"2023-04-13 03:00",19.8973215966848,"Approved","OW416"
"2023-04-13 04:00",19.8933236645872,"Approved","OW416"
"2023-04-13 05:00",19.8903257324895,"Approved","OW416"
"2023-04-13 06:00",19.8883278003918,"Approved","OW416"
"2023-04-13 07:00",19.8873298682941,"Approved","OW416"
"2023-04-13 08:00",19.8843319361965,"Approved","OW416"
"2023-04-13 09:00",19.8833340040988,"Approved","OW416"
"2023-04-13 10:00",19.8803360720011,"Approved","OW416"
"2023-04-13 11:00",19.8803381399035,"Approved","OW416"
"2023-04-13 12:00",19.8793402078058,"Approved","OW416"
"2023-04-13 13:00",19.8793422757081,"Approved","OW416"
"2023-04-13 14:00",19.8803443436104,"Approved","OW416"
"2023-04-13 15:00",19.8843464115128,"Approved","OW416"
"2023-04-13 16:00",19.8833484794151,"Approved","OW416"
"2023-04-13 17:00",19.8843505473174,"Approved","OW416"
"2023-04-13 18:00",19.8853526152197,"Approved","OW416"
"2023-04-13 19:00",19.8913546831221,"Approved","OW416"
"2023-04-13 20:00",19.8853567510244,"Approved","OW416"
"2023-04-13 21:00",19.8863588189267,"Approved","OW416"
"2023-04-13 22:00",19.8863608868291,"Approved","OW416"
"2023-04-13 23:00",19.8863629547314,"Approved","OW416"
"2023-04-14 00:00",19.8863650226337,"Approved","OW416"
"2023-04-14 01:00",19.886367090536,"Approved","OW416"
"2023-04-14 02:00",19.8873691584384,"Approved","OW416"
"2023-04-14 03:00",19.8953712263407,"Approved","OW416"
"2023-04-14 04:00",19.886373294243,"Approved","OW416"
"2023-04-14 05:00",19.8843753621453,"Approved","OW416"
"2023-04-14 06:00",19.8823774300477,"Approved","OW416"
"2023-04-14 07:00",19.88037949795,"Approved","OW416"
"2023-04-14 08:00",19.8803815658523,"Approved","OW416"
"2023-04-14 09:00",19.8773836337547,"Approved","OW416"
"2023-04-14 10:00",19.875385701657,"Approved","OW416"
"2023-04-14 11:00",19.8753877695593,"Approved","OW416"
"2023-04-14 12:00",19.8743898374616,"Approved","OW416"
"2023-04-14 13:00",19.874391905364,"Approved","OW416"
"2023-04-14 14:00",19.8743939732663,"Approved","OW416"
"2023-04-14 15:00",19.8763960411686,"Approved","OW416"
"2023-04-14 16:00",19.8773981090709,"Approved","OW416"
"2023-04-14 17:00",19.8854001769733,"Approved","OW416"
"2023-04-14 18:00",19.8834022448756,"Approved","OW416"
"2023-04-14 19:00",19.8814043127779,"Approved","OW416"
"2023-04-14 20:00",19.8784063806803,"Approved","OW416"
"2023-04-14 21:00",19.8804084485826,"Approved","OW416"
"2023-04-14 22:00",19.8824105164849,"Approved","OW416"
"2023-04-14 23:00",19.8844125843872,"Approved","OW416"
"2023-04-15 00:00",19.8814146522896,"Approved","OW416"
"2023-04-15 01:00",19.8874167201919,"Approved","OW416"
"2023-04-15 02:00",19.8854187880942,"Approved","OW416"
"2023-04-15 03:00",19.8814208559966,"Approved","OW416"
"2023-04-15 04:00",19.8814229238989,"Approved","OW416"
"2023-04-15 05:00",19.8814249918012,"Approved","OW416"
"2023-04-15 06:00",19.8784270597035,"Approved","OW416"
"2023-04-15 07:00",19.8764291276059,"Approved","OW416"
"2023-04-15 08:00",19.8744311955082,"Approved","OW416"
"2023-04-15 09:00",19.8724332634105,"Approved","OW416"
"2023-04-15 10:00",19.8724353313128,"Approved","OW416"
"2023-04-15 11:00",19.8694373992152,"Approved","OW416"
"2023-04-15 12:00",19.8684394671175,"Approved","OW416"
"2023-04-15 13:00",19.8674415350198,"Approved","OW416"
"2023-04-15 14:00",19.8704436029222,"Approved","OW416"
"2023-04-15 15:00",19.8724456708245,"Approved","OW416"
"2023-04-15 16:00",19.8874477387268,"Approved","OW416"
"2023-04-15 17:00",19.8764498066291,"Approved","OW416"
"2023-04-15 18:00",19.8744518745315,"Approved","OW416"
"2023-04-15 19:00",19.8784539424338,"Approved","OW416"
"2023-04-15 20:00",19.8924560103361,"Approved","OW416"
"2023-04-15 21:00",19.8744580782384,"Approved","OW416"
"2023-04-15 22:00",19.8754601461408,"Approved","OW416"
"2023-04-15 23:00",19.8744622140431,"Approved","OW416"
"2023-04-16 00:00",19.8734642819454,"Approved","OW416"
"2023-04-16 01:00",19.8744663498478,"Approved","OW416"
"2023-04-16 02:00",19.8744684177501,"Approved","OW416"
"2023-04-16 03:00",19.8754704856524,"Approved","OW416"
"2023-04-16 04:00",19.8764725535547,"Approved","OW416"
"2023-04-16 05:00",19.8764746214571,"Approved","OW416"
"2023-04-16 06:00",19.8744766893594,"Approved","OW416"
"2023-04-16 07:00",19.8714787572617,"Approved","OW416"
"2023-04-16 08:00",19.8704808251641,"Approved","OW416"
"2023-04-16 09:00",19.8684828930664,"Approved","OW416"
"2023-04-16 10:00",19.8674849609687,"Approved","OW416"
"2023-04-16 11:00",19.864487028871,"Approved","OW416"
"2023-04-16 12:00",19.8644890967734,"Approved","OW416"
"2023-04-16 13:00",19.8634911646757,"Approved","OW416"
"2023-04-16 14:00",19.864493232578,"Approved","OW416"
"2023-04-16 15:00",19.8634953004803,"Approved","OW416"
"2023-04-16 16:00",19.8664973683827,"Approved","OW416"
"2023-04-16 17:00",19.865499436285,"Approved","OW416"
"2023-04-16 18:00",19.8675015041873,"Approved","OW416"
"2023-04-16 19:00",19.8675035720897,"Approved","OW416"